Time,TemperatureF,DewpointF,PressureIn,WindDirection,WindDirectionDegrees,WindSpeedMPH,WindSpeedGustMPH,Humidity,HourlyPrecipIn,Conditions,Clouds,dailyrainin,SoftwareType,DateUTC
2013-02-16 00:01:00,50.0,16.0,30.26,WNW,284,3.0,9.0,25,0.00,,,0.00,,2013-02-16 08:01:00,
2013-02-16 00:11:00,50.0,16.0,30.26,WNW,284,3.0,9.0,25,0.00,,,0.00,,2013-02-16 08:11:00,
2013-02-16 00:21:00,50.0,16.0,30.25,WSW,257,2.0,13.0,25,0.00,,,0.00,,2013-02-16 08:21:00,
2013-02-16 00:31:00,50.0,16.0,30.24,NNW,344,4.0,11.0,25,0.00,,,0.00,,2013-02-16 08:31:00,
2013-02-16 00:41:00,50.0,16.0,30.24,NNW,344,4.0,11.0,25,0.00,,,0.00,,2013-02-16 08:41:00,
2013-02-16 00:52:00,50.0,16.0,30.24,East,84,1.0,14.0,25,0.00,,,0.00,,2013-02-16 08:52:00,
2013-02-16 01:01:00,50.0,16.0,30.24,NNW,347,6.0,13.0,25,0.00,,,0.00,,2013-02-16 09:01:00,
2013-02-16 01:11:00,50.0,16.0,30.24,NNW,347,6.0,13.0,25,0.00,,,0.00,,2013-02-16 09:11:00,
2013-02-16 01:21:00,50.0,16.0,30.24,North,350,5.0,16.0,25,0.00,,,0.00,,2013-02-16 09:21:00,
2013-02-16 01:31:00,50.0,16.0,30.24,North,360,3.0,13.0,25,0.00,,,0.00,,2013-02-16 09:31:00,
2013-02-16 01:42:00,50.0,16.0,30.24,North,360,3.0,13.0,25,0.00,,,0.00,,2013-02-16 09:42:00,
2013-02-16 01:51:00,50.0,16.0,30.24,WSW,247,5.0,13.0,25,0.00,,,0.00,,2013-02-16 09:51:00,
2013-02-16 02:01:00,50.0,16.0,30.23,East,101,3.0,7.0,25,0.00,,,0.00,,2013-02-16 10:01:00,
2013-02-16 02:11:00,50.0,16.0,30.23,NNW,343,2.0,9.0,25,0.00,,,0.00,,2013-02-16 10:11:00,
2013-02-16 02:21:00,50.0,16.0,30.23,NNW,343,2.0,9.0,25,0.00,,,0.00,,2013-02-16 10:21:00,
2013-02-16 02:31:00,50.0,16.0,30.22,SW,229,2.0,10.0,25,0.00,,,0.00,,2013-02-16 10:31:00,
2013-02-16 02:41:00,50.0,16.0,30.22,SW,229,2.0,10.0,25,0.00,,,0.00,,2013-02-16 10:41:00,
2013-02-16 02:52:00,50.0,16.0,30.22,WSW,252,3.0,16.0,25,0.00,,,0.00,,2013-02-16 10:52:00,
2013-02-16 03:01:00,50.0,15.0,30.21,NNE,27,5.0,12.0,24,0.00,,,0.00,,2013-02-16 11:01:00,
2013-02-16 03:11:00,50.0,15.0,30.21,NNE,27,5.0,12.0,24,0.00,,,0.00,,2013-02-16 11:11:00,
2013-02-16 03:22:00,50.0,14.0,30.20,WSW,252,6.0,10.0,23,0.00,,,0.00,,2013-02-16 11:22:00,
2013-02-16 03:31:00,50.0,14.0,30.20,WSW,246,7.0,15.0,23,0.00,,,0.00,,2013-02-16 11:31:00,
2013-02-16 03:42:00,50.0,14.0,30.20,WSW,246,7.0,15.0,23,0.00,,,0.00,,2013-02-16 11:42:00,
2013-02-16 03:52:00,50.0,15.0,30.19,NNW,347,5.0,10.0,24,0.00,,,0.00,,2013-02-16 11:52:00,
2013-02-16 04:01:00,49.0,15.0,30.20,NW,307,4.0,12.0,25,0.00,,,0.00,,2013-02-16 12:01:00,
2013-02-16 04:12:00,49.0,15.0,30.20,NW,307,4.0,12.0,25,0.00,,,0.00,,2013-02-16 12:12:00,
2013-02-16 04:22:00,50.0,15.0,30.20,West,266,7.0,14.0,24,0.00,,,0.00,,2013-02-16 12:22:00,
2013-02-16 04:32:00,49.0,15.0,30.20,NNE,15,6.0,10.0,25,0.00,,,0.00,,2013-02-16 12:32:00,
2013-02-16 04:42:00,49.0,15.0,30.20,NNE,15,6.0,10.0,25,0.00,,,0.00,,2013-02-16 12:42:00,
2013-02-16 04:52:00,49.0,15.0,30.19,ENE,61,4.0,11.0,25,0.00,,,0.00,,2013-02-16 12:52:00,
2013-02-16 05:01:00,49.0,15.0,30.19,SSE,154,4.0,10.0,25,0.00,,,0.00,,2013-02-16 13:01:00,
2013-02-16 05:11:00,48.0,15.0,30.19,NNW,331,6.0,11.0,26,0.00,,,0.00,,2013-02-16 13:11:00,
2013-02-16 05:21:00,48.0,15.0,30.19,NNW,331,6.0,11.0,26,0.00,,,0.00,,2013-02-16 13:21:00,
2013-02-16 05:31:00,48.0,16.0,30.19,NNE,15,1.0,12.0,28,0.00,,,0.00,,2013-02-16 13:31:00,
2013-02-16 05:41:00,48.0,16.0,30.19,NNE,15,1.0,12.0,28,0.00,,,0.00,,2013-02-16 13:41:00,
2013-02-16 05:51:00,48.0,16.0,30.19,North,5,4.0,10.0,27,0.00,,,0.00,,2013-02-16 13:51:00,
2013-02-16 06:01:00,48.0,16.0,30.19,NNE,21,3.0,12.0,28,0.00,,,0.00,,2013-02-16 14:01:00,
2013-02-16 06:11:00,48.0,16.0,30.19,NNE,21,3.0,12.0,28,0.00,,,0.00,,2013-02-16 14:11:00,
2013-02-16 06:21:00,48.0,16.0,30.19,NNE,14,4.0,9.0,27,0.00,,,0.00,,2013-02-16 14:21:00,
2013-02-16 06:32:00,48.0,16.0,30.19,SW,225,3.0,11.0,28,0.00,,,0.00,,2013-02-16 14:32:00,
2013-02-16 06:41:00,48.0,16.0,30.19,SW,225,3.0,11.0,28,0.00,,,0.00,,2013-02-16 14:41:00,
2013-02-16 06:52:00,48.0,16.0,30.19,SW,234,7.0,16.0,28,0.00,,,0.00,,2013-02-16 14:52:00,
2013-02-16 07:01:00,48.0,16.0,30.19,SSE,163,3.0,12.0,28,0.00,,,0.00,,2013-02-16 15:01:00,
2013-02-16 07:11:00,48.0,16.0,30.19,SSE,163,3.0,12.0,28,0.00,,,0.00,,2013-02-16 15:11:00,
2013-02-16 07:21:00,48.0,16.0,30.20,NE,50,3.0,17.0,28,0.00,,,0.00,,2013-02-16 15:21:00,
2013-02-16 07:31:00,49.0,16.0,30.20,NNW,348,4.0,9.0,27,0.00,,,0.00,,2013-02-16 15:31:00,
2013-02-16 07:41:00,49.0,16.0,30.20,NNW,348,4.0,9.0,27,0.00,,,0.00,,2013-02-16 15:41:00,
2013-02-16 07:52:00,49.0,16.0,30.19,North,360,6.0,16.0,27,0.00,,,0.00,,2013-02-16 15:52:00,
2013-02-16 08:01:00,49.0,16.0,30.20,East,92,6.0,22.0,26,0.00,,,0.00,,2013-02-16 16:01:00,
2013-02-16 08:11:00,49.0,16.0,30.20,East,92,6.0,22.0,26,0.00,,,0.00,,2013-02-16 16:11:00,
2013-02-16 08:21:00,50.0,16.0,30.20,NE,34,6.0,14.0,26,0.00,,,0.00,,2013-02-16 16:21:00,
2013-02-16 08:32:00,50.0,16.0,30.21,ENE,75,6.0,15.0,26,0.00,,,0.00,,2013-02-16 16:32:00,
2013-02-16 08:41:00,50.0,16.0,30.21,ENE,75,6.0,15.0,26,0.00,,,0.00,,2013-02-16 16:41:00,
2013-02-16 08:51:00,50.0,16.0,30.21,SSE,151,4.0,11.0,26,0.00,,,0.00,,2013-02-16 16:51:00,
2013-02-16 09:01:00,50.0,16.0,30.20,WSW,247,5.0,15.0,26,0.00,,,0.00,,2013-02-16 17:01:00,
2013-02-16 09:11:00,50.0,16.0,30.20,WSW,247,5.0,15.0,26,0.00,,,0.00,,2013-02-16 17:11:00,
2013-02-16 09:21:00,50.0,16.0,30.21,WNW,291,3.0,9.0,25,0.00,,,0.00,,2013-02-16 17:21:00,
2013-02-16 09:31:00,51.0,16.0,30.20,SSW,194,5.0,12.0,25,0.00,,,0.00,,2013-02-16 17:31:00,
2013-02-16 09:41:00,51.0,16.0,30.20,SSW,194,5.0,12.0,25,0.00,,,0.00,,2013-02-16 17:41:00,
2013-02-16 09:52:00,51.0,17.0,30.20,NNE,15,3.0,9.0,26,0.00,,,0.00,,2013-02-16 17:52:00,
2013-02-16 10:01:00,51.0,16.0,30.20,NE,46,5.0,12.0,25,0.00,,,0.00,,2013-02-16 18:01:00,
2013-02-16 10:11:00,51.0,16.0,30.20,SW,232,6.0,15.0,24,0.00,,,0.00,,2013-02-16 18:11:00,
2013-02-16 10:21:00,51.0,16.0,30.20,SW,232,6.0,15.0,24,0.00,,,0.00,,2013-02-16 18:21:00,
2013-02-16 10:32:00,52.0,16.0,30.19,NNW,337,7.0,14.0,24,0.00,,,0.00,,2013-02-16 18:32:00,
2013-02-16 10:41:00,52.0,16.0,30.19,NNW,337,7.0,14.0,24,0.00,,,0.00,,2013-02-16 18:41:00,
2013-02-16 10:52:00,52.0,16.0,30.19,WSW,245,3.0,9.0,24,0.00,,,0.00,,2013-02-16 18:52:00,
2013-02-16 11:01:00,53.0,16.0,30.19,SSW,211,2.0,9.0,23,0.00,,,0.00,,2013-02-16 19:01:00,
2013-02-16 11:11:00,53.0,16.0,30.19,SSW,211,2.0,9.0,23,0.00,,,0.00,,2013-02-16 19:11:00,
2013-02-16 11:21:00,54.0,16.0,30.19,WSW,242,5.0,11.0,22,0.00,,,0.00,,2013-02-16 19:21:00,
2013-02-16 11:31:00,54.0,18.0,30.19,North,10,4.0,10.0,24,0.00,,,0.00,,2013-02-16 19:31:00,
2013-02-16 11:42:00,54.0,18.0,30.19,North,10,4.0,10.0,24,0.00,,,0.00,,2013-02-16 19:42:00,
2013-02-16 11:52:00,54.0,16.0,30.18,ESE,116,4.0,10.0,22,0.00,,,0.00,,2013-02-16 19:52:00,
2013-02-16 12:01:00,54.0,15.0,30.17,NNE,28,7.0,15.0,21,0.00,,,0.00,,2013-02-16 20:01:00,
2013-02-16 12:11:00,54.0,16.0,30.16,NW,317,4.0,12.0,22,0.00,,,0.00,,2013-02-16 20:11:00,
2013-02-16 12:21:00,54.0,16.0,30.16,NW,317,4.0,12.0,22,0.00,,,0.00,,2013-02-16 20:21:00,
2013-02-16 12:31:00,54.0,14.0,30.14,North,360,3.0,11.0,20,0.00,,,0.00,,2013-02-16 20:31:00,
2013-02-16 12:42:00,54.0,14.0,30.14,West,269,2.0,10.0,20,0.00,,,0.00,,2013-02-16 20:42:00,
2013-02-16 12:52:00,54.0,14.0,30.14,West,269,2.0,10.0,20,0.00,,,0.00,,2013-02-16 20:52:00,
2013-02-16 13:01:00,55.0,15.0,30.13,East,82,3.0,14.0,20,0.00,,,0.00,,2013-02-16 21:01:00,
2013-02-16 13:11:00,55.0,15.0,30.13,East,82,3.0,14.0,20,0.00,,,0.00,,2013-02-16 21:11:00,
2013-02-16 13:21:00,55.0,15.0,30.11,North,355,4.0,12.0,20,0.00,,,0.00,,2013-02-16 21:21:00,
2013-02-16 13:31:00,55.0,15.0,30.11,West,275,3.0,8.0,20,0.00,,,0.00,,2013-02-16 21:31:00,
2013-02-16 13:41:00,55.0,15.0,30.11,West,275,3.0,8.0,20,0.00,,,0.00,,2013-02-16 21:41:00,
2013-02-16 13:52:00,55.0,14.0,30.10,North,360,3.0,13.0,19,0.00,,,0.00,,2013-02-16 21:52:00,
2013-02-16 14:01:00,55.0,15.0,30.09,East,90,1.0,7.0,20,0.00,,,0.00,,2013-02-16 22:01:00,
2013-02-16 14:11:00,55.0,15.0,30.09,East,90,1.0,7.0,20,0.00,,,0.00,,2013-02-16 22:11:00,
2013-02-16 14:21:00,56.0,14.0,30.09,SSW,206,2.0,6.0,19,0.00,,,0.00,,2013-02-16 22:21:00,
2013-02-16 14:31:00,56.0,14.0,30.09,WSW,248,5.0,10.0,19,0.00,,,0.00,,2013-02-16 22:31:00,
2013-02-16 14:42:00,56.0,14.0,30.09,WSW,248,5.0,10.0,19,0.00,,,0.00,,2013-02-16 22:42:00,
2013-02-16 14:52:00,57.0,15.0,30.08,South,179,4.0,10.0,19,0.00,,,0.00,,2013-02-16 22:52:00,
2013-02-16 15:02:00,57.0,14.0,30.07,SSE,151,5.0,10.0,18,0.00,,,0.00,,2013-02-16 23:02:00,
2013-02-16 15:11:00,59.0,14.0,30.07,SW,214,2.0,7.0,17,0.00,,,0.00,,2013-02-16 23:11:00,
2013-02-16 15:21:00,59.0,14.0,30.07,SW,214,2.0,7.0,17,0.00,,,0.00,,2013-02-16 23:21:00,
2013-02-16 15:31:00,59.0,14.0,30.06,ENE,66,1.0,6.0,17,0.00,,,0.00,,2013-02-16 23:31:00,
2013-02-16 15:41:00,59.0,14.0,30.06,ENE,66,1.0,6.0,17,0.00,,,0.00,,2013-02-16 23:41:00,
2013-02-16 15:52:00,60.0,15.0,30.06,South,187,3.0,8.0,17,0.00,,,0.00,,2013-02-16 23:52:00,
2013-02-16 16:01:00,60.0,14.0,30.06,NNW,338,3.0,7.0,16,0.00,,,0.00,,2013-02-17 00:01:00,
2013-02-16 16:11:00,60.0,14.0,30.06,NNW,338,3.0,7.0,16,0.00,,,0.00,,2013-02-17 00:11:00,
2013-02-16 16:21:00,59.0,14.0,30.06,South,171,1.0,5.0,17,0.00,,,0.00,,2013-02-17 00:21:00,
2013-02-16 16:31:00,60.0,15.0,30.05,South,190,3.0,4.0,17,0.00,,,0.00,,2013-02-17 00:31:00,
2013-02-16 16:41:00,60.0,15.0,30.05,South,190,3.0,4.0,17,0.00,,,0.00,,2013-02-17 00:41:00,
2013-02-16 16:52:00,59.0,13.0,30.05,SSE,161,2.0,6.0,16,0.00,,,0.00,,2013-02-17 00:52:00,
2013-02-16 17:01:00,57.0,13.0,30.05,ESE,112,1.0,5.0,17,0.00,,,0.00,,2013-02-17 01:01:00,
2013-02-16 17:11:00,57.0,13.0,30.05,ESE,112,1.0,5.0,17,0.00,,,0.00,,2013-02-17 01:11:00,
2013-02-16 17:21:00,53.0,18.0,30.04,NNW,341,2.0,3.0,25,0.00,,,0.00,,2013-02-17 01:21:00,
2013-02-16 17:31:00,52.0,16.0,30.04,North,355,0.0,3.0,24,0.00,,,0.00,,2013-02-17 01:31:00,
2013-02-16 17:41:00,52.0,16.0,30.04,North,355,0.0,3.0,24,0.00,,,0.00,,2013-02-17 01:41:00,
2013-02-16 17:52:00,51.0,18.0,30.04,North,355,0.0,3.0,27,0.00,,,0.00,,2013-02-17 01:52:00,
2013-02-16 18:01:00,50.0,19.0,30.04,North,355,4.0,5.0,29,0.00,,,0.00,,2013-02-17 02:01:00,
2013-02-16 18:21:00,48.0,19.0,30.04,NNW,344,4.0,6.0,31,0.00,,,0.00,,2013-02-17 02:21:00,
2013-02-16 18:31:00,47.0,17.0,30.04,North,351,4.0,6.0,30,0.00,,,0.00,,2013-02-17 02:31:00,
2013-02-16 18:41:00,47.0,17.0,30.04,North,351,4.0,6.0,30,0.00,,,0.00,,2013-02-17 02:41:00,
2013-02-16 18:52:00,47.0,19.0,30.03,North,360,4.0,9.0,32,0.00,,,0.00,,2013-02-17 02:52:00,
2013-02-16 19:01:00,46.0,19.0,30.03,NNW,348,5.0,8.0,33,0.00,,,0.00,,2013-02-17 03:01:00,
2013-02-16 19:11:00,46.0,19.0,30.03,NNW,348,5.0,8.0,33,0.00,,,0.00,,2013-02-17 03:11:00,
2013-02-16 19:21:00,45.0,19.0,30.03,North,355,5.0,7.0,35,0.00,,,0.00,,2013-02-17 03:21:00,
2013-02-16 19:31:00,44.0,18.0,30.03,NNW,348,5.0,6.0,35,0.00,,,0.00,,2013-02-17 03:31:00,
2013-02-16 19:41:00,44.0,18.0,30.03,NNW,348,5.0,6.0,35,0.00,,,0.00,,2013-02-17 03:41:00,
2013-02-16 19:51:00,46.0,17.0,30.03,North,355,6.0,8.0,31,0.00,,,0.00,,2013-02-17 03:51:00,
2013-02-16 20:01:00,44.0,18.0,30.03,North,355,6.0,9.0,35,0.00,,,0.00,,2013-02-17 04:01:00,
2013-02-16 20:11:00,45.0,18.0,30.03,North,360,6.0,9.0,33,0.00,,,0.00,,2013-02-17 04:11:00,
2013-02-16 20:21:00,45.0,18.0,30.03,North,360,6.0,9.0,33,0.00,,,0.00,,2013-02-17 04:21:00,
2013-02-16 20:31:00,47.0,17.0,30.03,North,355,5.0,8.0,30,0.00,,,0.00,,2013-02-17 04:31:00,
2013-02-16 20:41:00,47.0,17.0,30.03,North,355,5.0,8.0,30,0.00,,,0.00,,2013-02-17 04:41:00,
2013-02-16 20:51:00,47.0,16.0,30.02,North,355,7.0,9.0,29,0.00,,,0.00,,2013-02-17 04:51:00,
2013-02-16 21:01:00,47.0,16.0,30.02,NNW,340,6.0,10.0,29,0.00,,,0.00,,2013-02-17 05:01:00,
2013-02-16 21:11:00,47.0,16.0,30.02,North,355,6.0,10.0,29,0.00,,,0.00,,2013-02-17 05:11:00,
2013-02-16 21:21:00,47.0,16.0,30.02,North,355,6.0,10.0,29,0.00,,,0.00,,2013-02-17 05:21:00,
2013-02-16 21:32:00,47.0,16.0,30.02,NNW,345,6.0,10.0,29,0.00,,,0.00,,2013-02-17 05:32:00,
2013-02-16 21:42:00,47.0,16.0,30.02,NNW,345,6.0,10.0,29,0.00,,,0.00,,2013-02-17 05:42:00,
2013-02-16 21:51:00,48.0,15.0,30.02,North,349,7.0,12.0,26,0.00,,,0.00,,2013-02-17 05:51:00,
2013-02-16 22:01:00,51.0,14.0,30.01,North,360,9.0,14.0,22,0.00,,,0.00,,2013-02-17 06:01:00,
2013-02-16 22:11:00,51.0,14.0,30.01,North,360,9.0,14.0,22,0.00,,,0.00,,2013-02-17 06:11:00,
2013-02-16 22:21:00,49.0,14.0,30.01,NW,325,7.0,11.0,24,0.00,,,0.00,,2013-02-17 06:21:00,
2013-02-16 22:31:00,48.0,15.0,30.01,North,355,7.0,11.0,26,0.00,,,0.00,,2013-02-17 06:31:00,
2013-02-16 22:41:00,48.0,15.0,30.01,North,355,7.0,11.0,26,0.00,,,0.00,,2013-02-17 06:41:00,
2013-02-16 22:51:00,49.0,16.0,30.00,North,360,7.0,11.0,26,0.00,,,0.00,,2013-02-17 06:51:00,
2013-02-16 23:01:00,48.0,16.0,30.00,North,351,9.0,11.0,27,0.00,,,0.00,,2013-02-17 07:01:00,
2013-02-16 23:11:00,49.0,16.0,29.99,North,355,7.0,10.0,26,0.00,,,0.00,,2013-02-17 07:11:00,
2013-02-16 23:21:00,49.0,16.0,29.99,North,355,7.0,10.0,26,0.00,,,0.00,,2013-02-17 07:21:00,
2013-02-16 23:31:00,48.0,16.0,29.98,North,360,4.0,8.0,28,0.00,,,0.00,,2013-02-17 07:31:00,
2013-02-16 23:41:00,48.0,16.0,29.98,North,360,4.0,8.0,28,0.00,,,0.00,,2013-02-17 07:41:00,
2013-02-16 23:52:00,48.0,16.0,29.98,NNW,347,6.0,10.0,28,0.00,,,0.00,,2013-02-17 07:52:00,